sat.trackr.live / text

‹ back to catalog

STARLINK-34118

NORAD 63900 · 2025-095L

PAYLOAD ACTIVE UNKNOWN

§ Identity

Operator
Country
US
Launch date
2025-05-10
Launch site
AFETR
Launch vehicle
Mass (kg)
RCS (m²)

Purposes: comms

External: N2YO · Heavens-Above · Gunter

§ Orbital elements

Epoch: 2026-05-24T23:36:05.564736Z

Period
94.27 min
Inclination
42.9973°
Eccentricity
0.0000698
Mean motion
15.27591945 rev/d
Perigee alt
482.5 km
Apogee alt
483.5 km
Semi-major
6,861.2 km
B*
9.0131e-4
RAAN
105.5483°
Arg perigee
260.0196°
Mean anomaly
100.0577°
Rev number
5,945

§ Raw data

STARLINK-341181 63900U 25095L   26144.98339774  .00024632  00000+0  90131-3 0  99992 63900  42.9973 105.5483 0000698 260.0196 100.0577 15.27591945 59458

JSON: /api/v1/satellites/63900 · /tle

For live sub-satellite position, see the globe view (requires WebGL).

§ Visibility from observer

Set your observer location to see the next 7 days of passes ≥ 10°. The values pass through the URL so the page stays shareable.

No JS? Fill the form by hand. The geolocation button needs JavaScript.